Lid_Strength_Index
3 3 2 1 1 1 1 2 3 4 5 5 5 5 5 5 5 7 9 8 9 9 9 7 7 8 9 8 11 10 10 9 9 11 11 11 11 11 12 11 13 14 14 13 13 15 17 8 8 12 9 8 8 9
2 3 3 2 2 1 1 2 3 4 5 5 5 5 5 4 4 7 9 7 7 9 10 8 7 6 6 6 8 9 10 10 8 10 10 10 11 10 12 15 10 13 11 13 12 13 7 6 7 6 6 9 9 9
2 3 3 3 2 1 1 2 3 4 4 5 6 6 6 5 5 6 7 8 9 10 10 9 8 6 6 6 5 9 8 8 8 7 8 9 11 10 13 12 11 10 8 10 10 8 8 7 6 6 7 9 9 10
3 3 3 3 2 2 1 2 3 4 4 4 5 6 6 5 5 5 7 8 9 10 11 9 6 7 5 5 6 5 6 6 6 7 7 8 10 9 10 10 10 9 8 9 9 8 8 7 7 8 9 9 10 10
3 3 3 3 2 2 2 3 3 4 4 4 5 5 5 5 5 7 7 8 8 10 11 9 7 7 7 6 6 6 6 7 6 7 8 9 8 10 8 9 10 7 8 10 12 7 9 9 8 9 10 11 11 12
3 3 3 3 3 2 2 3 4 4 4 4 4 4 5 5 6 9 8 7 7 7 10 12 8 8 8 8 7 7 7 7 6 7 8 7 7 8 10 11 7 6 6 6 8 6 7 8 8 8 11 11 12 12
3 3 3 3 3 2 3 4 4 4 4 5 4 5 5 5 6 10 11 7 7 7 10 12 12 9 8 7 7 7 7 6 6 7 7 7 7 7 9 11 7 6 5 6 5 6 9 9 10 10 11 12 11 11
1 2 3 3 2 3 3 4 4 4 4 4 5 5 5 6 7 9 7 6 7 9 10 13 12 10 8 8 8 7 7 6 6 6 7 7 7 7 11 7 6 5 5 6 6 6 7 8 10 11 11 12 12 12
1 1 2 2 2 3 3 4 4 4 4 5 5 5 7 8 10 9 5 5 7 10 12 12 12 13 8 9 8 7 6 8 7 7 7 7 8 11 8 7 6 5 7 7 6 7 9 11 12 12 12 12 12 12
1 1 1 2 2 3 3 3 4 4 4 5 7 9 11 9 6 5 8 10 11 10 10 12 10 12 10 9 8 8 7 8 10 8 7 9 9 6 5 5 5 5 6 6 8 10 12 12 13 13 12 12 12 12
1 1 0 1 2 3 3 3 4 4 5 8 10 9 7 5 7 9 11 12 12 12 11 11 11 11 9 10 9 8 8 8 12 10 10 10 11 7 5 5 5 4 5 7 9 10 11 12 13 13 12 12 12 11
1 0 0 1 2 3 3 3 4 6 8 8 7 7 7 8 10 12 12 11 12 13 11 11 10 10 8 7 8 8 9 10 13 7 11 12 8 6 6 6 5 5 6 8 10 11 11 12 12 12 12 12 12 11
0 0 0 1 2 3 3 3 5 5 6 6 8 10 10 11 14 14 15 14 13 11 9 10 10 8 8 7 7 8 11 11 8 11 12 10 6 6 6 5 6 6 7 9 11 11 11 11 11 12 12 11 11 11
-0 0 1 1 2 3 4 4 5 6 7 10 11 14 13 14 13 12 12 11 9 9 9 8 8 8 7 8 7 10 9 9 12 14 12 8 6 6 6 5 6 8 8 10 11 11 11 11 12 11 10 10 11 11
0 1 2 2 3 3 4 4 5 6 9 11 11 15 14 12 11 10 10 10 9 8 8 8 7 7 8 9 9 10 12 12 11 12 9 6 5 6 5 5 7 8 9 10 11 11 11 11 11 11 10 10 10 10
1 2 4 3 4 4 4 5 6 7 9 10 11 13 11 12 12 11 10 10 8 7 6 6 8 9 9 9 12 12 13 12 10 8 5 4 5 5 5 6 7 8 9 10 11 11 11 11 10 10 10 10 10 9
2 5 3 3 3 3 4 7 7 10 11 13 13 11 11 11 11 11 10 9 8 6 8 7 10 10 9 10 12 10 10 8 6 5 4 4 5 5 5 6 7 8 9 10 11 11 11 10 10 10 11 10 10 10
4 3 2 2 3 5 6 7 10 11 14 12 13 12 11 10 10 10 8 7 8 8 6 8 6 10 11 12 11 8 6 5 4 4 4 4 4 4 5 6 7 8 9 10 10 10 10 10 10 10 10 10 10 10
3 3 2 3 4 7 9 9 9 13 12 11 11 11 10 10 8 7 7 7 7 6 7 8 10 9 9 8 8 6 5 5 5 4 4 4 3 4 5 6 7 7 9 10 10 10 9 10 10 9 9 9 11 11
2 2 3 3 4 8 11 11 8 11 12 11 10 10 9 9 8 8 8 7 8 8 9 10 9 6 6 6 6 5 4 4 4 5 4 4 4 4 6 7 7 7 9 9 9 10 9 9 9 9 9 10 10 11
3 4 4 4 6 7 9 10 11 10 10 10 9 9 9 9 9 9 8 8 9 9 10 8 6 6 5 6 5 4 4 4 4 3 4 5 4 4 5 6 6 8 9 10 10 9 10 10 9 8 7 9 9 9
5 4 6 5 8 8 9 8 9 8 9 9 9 9 9 10 9 9 8 10 10 9 8 8 7 6 6 6 5 4 3 3 3 5 6 5 5 5 5 6 6 9 9 9 9 9 9 9 8 7 6 6 7 7
4 5 7 7 10 10 11 8 10 10 12 11 10 11 11 10 9 8 10 9 8 7 7 7 7 6 6 5 6 5 4 3 4 4 4 3 3 4 5 6 6 8 9 9 8 8 9 10 9 8 7 6 6 6
4 7 9 10 11 13 9 10 9 10 10 11 12 12 11 10 9 10 11 8 8 7 7 7 7 7 7 7 7 5 5 4 4 5 4 3 4 4 5 6 6 7 8 8 8 8 8 8 10 9 8 8 7 6
12 11 10 12 10 12 12 12 11 12 13 11 12 11 10 9 11 11 11 9 8 7 6 6 6 6 7 6 6 5 4 4 5 5 5 3 3 5 5 5 6 7 7 8 9 8 8 8 8 8 8 9 9 7
15 11 12 11 11 12 12 12 12 11 11 12 11 9 9 10 12 12 9 7 6 5 6 6 6 6 6 5 5 5 5 4 4 5 5 3 3 5 6 7 8 9 7 7 8 8 8 8 8 8 9 10 13 9
14 12 10 9 9 10 10 10 9 10 12 12 10 10 11 12 12 9 5 4 4 4 4 4 5 5 5 5 4 4 3 4 4 4 4 2 2 3 5 6 8 8 7 7 7 7 8 8 8 7 8 8 8 8
11 11 13 11 11 10 12 11 11 11 10 8 8 11 11 10 10 6 4 3 4 5 5 4 4 4 4 4 4 4 4 4 3 3 3 2 2 4 3 5 5 10 6 6 6 6 6 7 7 7 7 8 7 7
12 10 11 13 12 11 11 11 11 9 7 8 9 9 8 6 6 6 4 4 3 5 6 6 6 4 4 3 4 4 4 3 4 5 6 6 5 4 4 5 6 6 6 6 13 9 6 6 6 6 6 6 6 6
12 10 12 12 13 13 11 8 8 7 6 6 7 7 7 6 4 2 3 3 4 5 5 5 5 5 5 5 5 5 3 2 3 4 5 5 4 3 3 5 6 5 5 6 6 8 13 8 9 6 7 6 6 6
10 11 13 12 13 11 9 7 6 6 6 7 7 8 8 7 4 2 2 3 4 4 5 5 5 4 4 5 5 5 6 4 3 2 2 2 2 2 3 3 4 4 5 5 6 6 6 6 6 6 7 6 6 6
11 13 13 14 12 9 9 10 10 9 9 9 9 8 7 7 7 3 1 2 4 5 7 5 4 4 4 4 3 4 7 3 2 2 2 2 2 3 3 3 4 4 4 5 5 5 5 6 6 6 5 5 6 6
11 11 11 11 11 11 9 10 10 10 10 10 10 9 8 6 7 4 1 1 1 3 3 3 3 3 3 3 3 4 5 2 5 9 9 9 9 7 4 3 3 4 4 5 5 5 6 5 5 6 6 6 7 7